TimeCDT,TemperatureF,Dew PointF,Humidity,Sea Level PressureIn,VisibilityMPH,Wind Direction,Wind SpeedMPH,Gust SpeedMPH,PrecipitationIn,Events,Conditions,WindDirDegrees,DateUTC
12:53 AM,42.1,33.1,70,30.25,10.0,ESE,4.6,-,N/A,,Overcast,120,2013-03-29 05:53:00
1:53 AM,41.0,33.1,73,30.24,10.0,East,4.6,-,N/A,,Mostly Cloudy,90,2013-03-29 06:53:00
2:53 AM,37.9,32.0,79,30.23,10.0,ENE,4.6,-,N/A,,Clear,60,2013-03-29 07:53:00
3:53 AM,36.0,30.9,82,30.22,10.0,ENE,4.6,-,N/A,,Clear,60,2013-03-29 08:53:00
4:53 AM,36.0,30.9,82,30.22,10.0,ENE,5.8,-,N/A,,Clear,70,2013-03-29 09:53:00
5:53 AM,36.0,30.0,79,30.22,10.0,East,5.8,-,N/A,,Clear,90,2013-03-29 10:53:00
6:53 AM,36.0,30.0,79,30.24,10.0,Calm,Calm,-,N/A,,Clear,0,2013-03-29 11:53:00
7:53 AM,35.1,30.0,82,30.26,9.0,ENE,3.5,-,N/A,,Clear,70,2013-03-29 12:53:00
8:53 AM,39.9,32.0,73,30.27,10.0,East,4.6,-,N/A,,Clear,100,2013-03-29 13:53:00
9:53 AM,46.9,35.1,63,30.26,10.0,East,3.5,-,N/A,,Clear,90,2013-03-29 14:53:00
10:53 AM,53.1,36.0,52,30.26,10.0,East,8.1,-,N/A,,Clear,80,2013-03-29 15:53:00
11:53 AM,55.9,33.1,42,30.25,10.0,East,8.1,-,N/A,,Clear,100,2013-03-29 16:53:00
12:53 PM,59.0,30.9,35,30.24,10.0,ESE,9.2,-,N/A,,Clear,120,2013-03-29 17:53:00
1:53 PM,61.0,30.0,31,30.21,10.0,SSE,5.8,-,N/A,,Clear,150,2013-03-29 18:53:00
2:53 PM,63.0,30.0,29,30.19,10.0,ESE,9.2,-,N/A,,Clear,110,2013-03-29 19:53:00
3:53 PM,63.0,28.0,27,30.16,10.0,SE,8.1,-,N/A,,Clear,140,2013-03-29 20:53:00
4:53 PM,63.0,28.9,28,30.15,10.0,SE,10.4,16.1,N/A,,Clear,140,2013-03-29 21:53:00
5:53 PM,63.0,28.9,28,30.15,10.0,SSE,9.2,-,N/A,,Clear,160,2013-03-29 22:53:00
6:53 PM,61.0,30.0,31,30.15,10.0,SE,5.8,-,N/A,,Clear,140,2013-03-29 23:53:00
7:53 PM,55.9,30.9,39,30.15,10.0,SE,8.1,-,N/A,,Clear,140,2013-03-30 00:53:00
8:53 PM,54.0,30.9,41,30.16,10.0,SSE,6.9,-,N/A,,Clear,150,2013-03-30 01:53:00
10:53 PM,48.9,32.0,52,30.15,10.0,SE,10.4,-,N/A,,Clear,140,2013-03-30 03:53:00
11:53 PM,48.9,33.1,54,30.13,10.0,SE,9.2,-,N/A,,Clear,140,2013-03-30 04:53:00